Weather History for KGPI - September, 2013

Change the Weather History Date:

Monday, September 2, 2013

  Actual Average Record
Temperature  
Mean Temperature 68 °F 59 °F  
Max Temperature 83 °F 76 °F 96 °F (1998)
Min Temperature 52 °F 43 °F 29 °F (1959)
Degree Days  
Heating Degree Days 0 6  
Month to date heating degree days 0 12  
Since 1 July heating degree days 41 182  
Cooling Degree Days 3 0  
Month to date cooling degree days 5 1  
Year to date cooling degree days 240 144  
Growing Degree Days 18 (Base 50)    
Moisture  
Dew Point 50 °F    
Average Humidity 59    
Maximum Humidity 86    
Minimum Humidity 31    
Precipitation  
Precipitation T in 0.05 in 0.48 in (1980)
Month to date precipitation T 0.09  
Year to date precipitation 10.62 11.70  
Snow  
Snow 0.00 in - - ()
Month to date snowfall 0.0  
Year to date snowfall 10.1  
Since 1 July snowfall 0.0  
Snow Depth 0.00 in    
Sea Level Pressure  
Sea Level Pressure 29.88 in    
Wind  
Wind Speed 5 mph (NNW)    
Max Wind Speed 16 mph    
Max Gust Speed 24 mph    
Visibility 10 miles    
Events      
T = Trace of Precipitation, MM = Missing Value Source: NWS Daily Summary

Daily Weather History Graph

Daily Weather History Graph

Search for Another Location

Airport or City:

Trip Planner

Search our weather history database for the weather conditions in past years. The results will help you decide how hot, cold, wet, or windy it might be!

Date:

Astronomy

Sep. 02, 2013 Rise Set
Actual Time 6:56 AM MDT 8:15 PM MDT
Civil Twilight 6:24 AM MDT 8:47 PM MDT
Nautical Twilight 5:45 AM MDT 9:26 PM MDT
Astronomical Twilight 5:02 AM MDT 10:08 PM MDT
Moon 4:09 AM MDT (9/2) 6:36 PM MDT (9/2)
Length of Visible Light 14h 23m
Length of Day
13h 19m
Waning Crescent, 7% of the Moon is Illuminated
Sep 2
Waning Crescent
Sep 5
New
Sep 12
First Quarter
Sep 19
Full
Sep 26
Last Quarter

Hourly Weather History & Observations

Time (MDT) Temp. Dew Point Humidity Pressure Visibility Wind Dir Wind Speed Gust Speed Precip Events Conditions
12:55 AM 57.9 °F 52.0 °F 81% 29.85 in 10.0 mi Calm Calm - N/A   Clear
1:55 AM 60.1 °F 51.1 °F 72% 29.83 in 10.0 mi NNW 3.5 mph - N/A   Clear
2:55 AM 57.0 °F 51.1 °F 81% 29.84 in 10.0 mi ENE 5.8 mph - N/A   Clear
3:55 AM 55.9 °F 51.1 °F 84% 29.85 in 10.0 mi WNW 3.5 mph - N/A   Clear
4:55 AM 57.9 °F 50.0 °F 75% 29.85 in 10.0 mi WNW 4.6 mph - N/A   Clear
5:55 AM 55.9 °F 50.0 °F 80% 29.83 in 10.0 mi NNW 4.6 mph - N/A   Clear
6:55 AM 54.0 °F 48.9 °F 83% 29.83 in 10.0 mi WNW 3.5 mph - N/A   Clear
7:55 AM 57.9 °F 48.0 °F 70% 29.84 in 10.0 mi Variable 3.5 mph - N/A   Clear
8:55 AM 62.1 °F 52.0 °F 70% 29.87 in 10.0 mi North 3.5 mph - N/A   Clear
9:55 AM 66.9 °F 50.0 °F 54% 29.88 in 10.0 mi NW 3.5 mph - N/A   Clear
10:55 AM 73.0 °F 50.0 °F 44% 29.88 in 10.0 mi North 6.9 mph - N/A   Clear
11:55 AM 77.0 °F 50.0 °F 39% 29.87 in 10.0 mi North 4.6 mph - N/A   Clear
12:55 PM 81.0 °F 50.0 °F 34% 29.87 in 10.0 mi Variable 4.6 mph - N/A   Clear
1:55 PM 79.0 °F 50.0 °F 36% 29.91 in 10.0 mi East 3.5 mph - N/A   Clear
2:55 PM 77.0 °F 46.0 °F 33% 29.91 in 10.0 mi Variable 6.9 mph - N/A   Scattered Clouds
3:55 PM 78.1 °F 46.0 °F 32% 29.91 in 10.0 mi Variable 4.6 mph - N/A   Partly Cloudy
4:55 PM 78.1 °F 48.9 °F 36% 29.88 in 10.0 mi North 10.4 mph - N/A   Clear
5:55 PM 82.9 °F 48.0 °F 29% 29.88 in 10.0 mi North 6.9 mph - N/A   Clear
6:55 PM 81.0 °F 48.0 °F 31% 29.90 in 10.0 mi North 4.6 mph - N/A   Clear
7:55 PM 75.0 °F 50.0 °F 41% 29.90 in 10.0 mi Calm Calm - N/A   Partly Cloudy
8:55 PM 70.0 °F 53.1 °F 55% 29.94 in 10.0 mi SW 5.8 mph - N/A   Mostly Cloudy
9:55 PM 66.0 °F 55.9 °F 70% 29.94 in 10.0 mi NNW 6.9 mph - 0.00 in   Overcast
10:55 PM 64.0 °F 55.9 °F 75% 29.94 in 10.0 mi Calm Calm - N/A   Partly Cloudy
11:55 PM 62.1 °F 55.9 °F 80% 29.94 in 10.0 mi SW 4.6 mph - N/A   Clear